FW3075 Weather Reports


Display with metric or nautical units.
time (UTC)temp
F
wind
direction
speed
MPH
gust
MPH
rain 1hr
in
rain 24hr
in
rain mn
in
humidity
%
barometer
mb
20190425024508 53 210 0.0 0.0 0.00 0.00 0.00 48 1011.0
20190425024008 54 210 0.0 2.0 0.00 0.00 0.00 47 1011.1
20190425023507 54 210 0.0 2.0 0.00 0.00 0.00 46 1011.0
20190425023008 54 212 0.0 3.0 0.00 0.00 0.00 47 1011.2
20190425022508 55 212 0.0 3.0 0.00 0.00 0.00 46 1011.2
20190425022013 55 212 0.0 2.0 0.00 0.00 0.00 47 1011.2
20190425021507 55 212 1.0 2.0 0.00 0.00 0.00 44 1011.1
20190425021008 55 212 1.0 3.0 0.00 0.00 0.00 44 1011.0
20190425020507 56 206 1.0 5.0 0.00 0.00 0.00 44 1011.0
20190425020008 56 202 1.0 5.0 0.00 0.00 0.00 43 1011.1
20190425015508 57 198 1.0 2.0 0.00 0.00 0.00 43 1011.1
20190425015007 57 195 1.0 3.0 0.00 0.00 0.00 43 1011.1
20190425014507 58 192 1.0 3.0 0.00 0.00 0.00 42 1011.2
20190425014008 58 180 1.0 3.0 0.00 0.00 0.00 43 1011.2
20190425013507 58 190 1.0 3.0 0.00 0.00 0.00 42 1011.2
20190425013008 58 169 1.0 2.0 0.00 0.00 0.00 42 1011.2
20190425012507 58 169 0.0 2.0 0.00 0.00 0.00 44 1011.2
20190425012007 58 169 0.0 2.0 0.00 0.00 0.00 45 1011.1
20190425011508 58 169 0.0 2.0 0.00 0.00 0.00 44 1011.2
20190425011008 58 169 0.0 1.0 0.00 0.00 0.00 45 1011.2
20190425010508 59 166 0.0 1.0 0.00 0.00 0.00 43 1011.2
20190425010008 59 166 0.0 2.0 0.00 0.00 0.00 42 1011.3
20190425005507 59 166 0.0 2.0 0.00 0.00 0.00 44 1011.4
20190425005008 59 166 0.0 1.0 0.00 0.00 0.00 42 1011.5
20190425004507 59 166 0.0 1.0 0.00 0.00 0.00 43 1011.4
20190425004008 59 166 0.0 4.0 0.00 0.00 0.00 42 1011.4
20190425003507 59 166 0.0 4.0 0.00 0.00 0.00 43 1011.3
20190425003008 59 202 0.0 1.0 0.00 0.00 0.00 42 1011.1
20190425002506 59 202 0.0 1.0 0.00 0.00 0.00 43 1011.1
20190425002006 59 202 0.0 1.0 0.00 0.00 0.00 42 1011.1
20190425001508 59 202 0.0 1.0 0.00 0.00 0.00 41 1011.2
20190425001006 59 202 0.0 1.0 0.00 0.00 0.00 44 1011.1
20190425000507 59 202 0.0 1.0 0.00 0.00 0.00 43 1011.0
20190425000007 59 202 0.0 4.0 0.00 0.00 0.00 43 1011.1
20190424235506 59 202 1.0 4.0 0.00 0.00 0.00 41 1011.1
20190424235006 59 205 1.0 3.0 0.00 0.00 0.00 43 1011.1
20190424234506 59 205 0.0 3.0 0.00 0.00 0.00 42 1011.1
20190424234009 60 194 0.0 2.0 0.00 0.00 0.00 41 1011.1
20190424233506 60 194 0.0 2.0 0.00 0.00 0.00 42 1011.3
20190424233007 60 201 0.0 3.0 0.00 0.00 0.00 42 1011.2
20190424232506 60 202 0.0 3.0 0.00 0.00 0.00 42 1011.2
20190424232007 61 201 0.0 3.0 0.00 0.00 0.00 40 1011.2
20190424231507 61 198 0.0 0.0 0.00 0.00 0.00 43 1011.4
20190424231006 61 198 0.0 2.0 0.00 0.00 0.00 42 1011.4
20190424230506 61 198 1.0 3.0 0.00 0.00 0.00 39 1011.6
20190424230008 61 198 0.0 3.0 0.00 0.00 0.00 40 1011.7
20190424225506 61 198 0.0 3.0 0.00 0.00 0.00 38 1011.7
20190424225007 61 204 0.0 1.0 0.00 0.00 0.00 41 1011.7
20190424224506 62 204 0.0 1.0 0.00 0.00 0.00 40 1011.7
20190424224007 62 204 1.0 2.0 0.00 0.00 0.00 38 1011.7
20190424223506 62 204 1.0 4.0 0.00 0.00 0.00 38 1011.6
20190424223007 63 203 1.0 4.0 0.00 0.00 0.00 38 1011.6
20190424222506 63 180 0.0 2.0 0.00 0.00 0.00 37 1011.7
20190424222007 62 182 0.0 1.0 0.00 0.00 0.00 39 1011.7
20190424221506 62 182 0.0 2.0 0.00 0.00 0.00 43 1011.7
20190424221011 62 199 0.0 2.0 0.00 0.00 0.00 40 1011.8
20190424220506 62 211 0.0 1.0 0.00 0.00 0.00 37 1011.8
20190424220008 62 211 0.0 3.0 0.00 0.00 0.00 38 1011.9
20190424215507 62 211 1.0 3.0 0.00 0.00 0.00 38 1011.8
20190424215007 63 211 1.0 3.0 0.00 0.00 0.00 35 1011.8
20190424214506 63 198 1.0 3.0 0.00 0.00 0.00 34 1011.7
20190424214007 63 193 1.0 5.0 0.00 0.00 0.00 36 1011.9
20190424213506 64 165 2.0 6.0 0.00 0.00 0.00 36 1012.1
20190424213007 65 232 1.0 6.0 0.00 0.00 0.00 37 1012.1
20190424212506 65 197 1.0 4.0 0.00 0.00 0.00 38 1012.2
20190424212007 64 198 1.0 4.0 0.00 0.00 0.00 39 1012.2
20190424211507 64 213 1.0 5.0 0.00 0.00 0.00 40 1012.2
20190424211007 65 212 2.0 5.0 0.00 0.00 0.00 40 1012.2
20190424210506 65 213 2.0 9.0 0.00 0.00 0.00 40 1012.2
20190424210007 67 192 1.0 10.0 0.00 0.00 0.00 37 1012.5
20190424205506 67 223 2.0 7.0 0.00 0.00 0.00 39 1012.6
20190424205008 65 203 1.0 7.0 0.00 0.00 0.00 41 1012.7
20190424204508 64 94 1.0 3.0 0.00 0.00 0.00 43 1012.7
20190424204007 65 216 1.0 4.0 0.00 0.00 0.00 43 1012.7
20190424203506 65 212 1.0 4.0 0.00 0.00 0.00 44 1012.7
20190424203007 63 53 1.0 3.0 0.00 0.00 0.00 43 1012.8
20190424202506 63 57 1.0 3.0 0.00 0.00 0.00 43 1012.9
20190424202007 65 91 1.0 3.0 0.00 0.00 0.00 43 1013.0
20190424201507 64 91 0.0 2.0 0.00 0.00 0.00 43 1013.1
20190424201007 64 214 0.0 3.0 0.00 0.00 0.00 52 1013.2
20190424200640 62 214 1.0 3.0 0.00 0.00 0.00 52 1013.3
20190424200007 62 214 1.0 3.0 0.00 0.00 0.00 52 1013.3
20190424195506 63 214 1.0 2.0 0.00 0.00 0.00 48 1013.5
20190424195010 62 195 1.0 4.0 0.00 0.00 0.00 45 1013.5
20190424194506 62 195 1.0 4.0 0.00 0.00 0.00 43 1013.6
20190424194008 63 190 0.0 4.0 0.00 0.00 0.00 46 1013.6
20190424193506 63 189 1.0 4.0 0.00 0.00 0.00 44 1013.8
20190424193007 63 200 1.0 3.0 0.00 0.00 0.00 46 1013.7
20190424192506 63 87 1.0 3.0 0.00 0.00 0.00 48 1013.8
20190424192007 62 57 1.0 3.0 0.00 0.00 0.00 45 1013.8
20190424191507 63 214 1.0 4.0 0.00 0.00 0.00 46 1014.1
20190424191006 63 36 1.0 3.0 0.00 0.00 0.00 46 1014.2
20190424190506 63 299 1.0 3.0 0.00 0.00 0.00 44 1014.4
20190424190009 62 55 1.0 3.0 0.00 0.00 0.00 44 1014.4
20190424185506 63 173 1.0 3.0 0.00 0.00 0.00 45 1014.5
20190424185010 64 171 1.0 4.0 0.00 0.00 0.00 44 1014.5
20190424184507 64 186 1.0 4.0 0.00 0.00 0.00 47 1014.4
20190424184006 62 230 1.0 6.0 0.00 0.00 0.00 47 1014.5
20190424183506 63 183 1.0 6.0 0.00 0.00 0.00 45 1014.5
20190424183008 63 85 1.0 3.0 0.00 0.00 0.00 46 1014.4
20190424182507 62 55 1.0 5.0 0.00 0.00 0.00 48 1014.4
20190424182007 62 55 1.0 5.0 0.00 0.00 0.00 47 1014.5
20190424181506 63 90 1.0 2.0 0.00 0.00 0.00 46 1014.4
20190424181007 62 74 1.0 3.0 0.00 0.00 0.00 49 1014.6
20190424180506 61 198 1.0 4.0 0.00 0.00 0.00 49 1014.6
20190424180007 60 202 1.0 3.0 0.00 0.00 0.00 50 1014.5
20190424175505 60 65 1.0 3.0 0.00 0.00 0.00 46 1014.4
20190424175006 60 92 0.0 2.0 0.00 0.00 0.00 46 1014.6
20190424174506 60 91 1.0 4.0 0.00 0.00 0.00 49 1014.6
20190424174006 60 62 2.0 4.0 0.00 0.00 0.00 48 1014.5
20190424173506 60 50 2.0 4.0 0.00 0.00 0.00 49 1014.7
20190424173008 61 41 1.0 4.0 0.00 0.00 0.00 47 1014.8
20190424172506 61 144 1.0 3.0 0.00 0.00 0.00 47 1014.8
20190424172007 61 107 1.0 2.0 0.00 0.00 0.00 46 1015.0
20190424171506 62 147 1.0 2.0 0.00 0.00 0.00 46 1015.1
20190424171008 61 147 1.0 4.0 0.00 0.00 0.00 50 1015.2
20190424170506 59 81 1.0 6.0 0.00 0.00 0.00 51 1015.3
20190424170008 59 93 1.0 6.0 0.00 0.00 0.00 50 1015.4
20190424165506 59 54 0.0 3.0 0.00 0.00 0.00 47 1015.5
20190424165006 58 59 1.0 3.0 0.00 0.00 0.00 52 1015.6
20190424164506 57 59 1.0 4.0 0.00 0.00 0.00 48 1015.6
20190424164007 57 59 1.0 4.0 0.00 0.00 0.00 52 1015.8
20190424163507 57 57 1.0 3.0 0.00 0.00 0.00 50 1015.8
20190424163007 57 57 1.0 4.0 0.00 0.00 0.00 53 1015.9
20190424162507 56 57 1.0 4.0 0.00 0.00 0.00 50 1016.0
20190424162007 57 56 1.0 3.0 0.00 0.00 0.00 49 1016.0
20190424161506 57 86 0.0 2.0 0.00 0.00 0.00 51 1016.2
20190424161006 56 69 0.0 1.0 0.00 0.00 0.00 51 1016.3
20190424160505 56 69 0.0 1.0 0.00 0.00 0.00 52 1016.3
20190424160007 56 69 0.0 1.0 0.00 0.00 0.00 53 1016.4
20190424155507 56 67 0.0 2.0 0.00 0.00 0.00 53 1016.5
20190424155006 56 67 0.0 2.0 0.00 0.00 0.00 51 1016.5
20190424154505 56 64 0.0 2.0 0.00 0.00 0.00 55 1016.5
20190424154005 56 64 0.0 2.0 0.00 0.00 0.00 53 1016.5
20190424153507 56 64 0.0 1.0 0.00 0.00 0.00 51 1016.4
20190424153006 56 63 1.0 3.0 0.00 0.00 0.00 54 1016.4
20190424152505 55 63 1.0 3.0 0.00 0.00 0.00 51 1016.4
20190424152006 55 81 1.0 2.0 0.00 0.00 0.00 54 1016.6
20190424151505 55 83 1.0 2.0 0.00 0.00 0.00 52 1016.4
20190424151006 55 84 1.0 3.0 0.00 0.00 0.00 54 1016.4
20190424150504 54 60 1.0 2.0 0.00 0.00 0.00 57 1016.4
20190424150007 55 60 0.0 2.0 0.00 0.00 0.00 58 1016.5
20190424145505 55 122 0.0 2.0 0.00 0.00 0.00 60 1016.4
20190424145012 55 122 0.0 2.0 0.00 0.00 0.00 61 1016.4
20190424144505 54 122 1.0 2.0 0.00 0.00 0.00 61 1016.4
20190424144005 54 61 1.0 3.0 0.00 0.00 0.00 63 1016.4
20190424143507 53 57 1.0 4.0 0.00 0.00 0.00 63 1016.5
20190424143009 53 54 0.0 2.0 0.00 0.00 0.00 67 1016.6
20190424142505 53 54 0.0 2.0 0.00 0.00 0.00 67 1016.8
20190424142005 52 54 0.0 2.0 0.00 0.00 0.00 70 1016.9
20190424141506 52 53 0.0 2.0 0.00 0.00 0.00 71 1016.9
20190424141005 51 53 0.0 2.0 0.00 0.00 0.00 71 1016.9
20190424140505 51 53 0.0 2.0 0.00 0.00 0.00 73 1016.8
20190424140006 50 53 0.0 2.0 0.00 0.01 0.00 74 1017.0
20190424135505 50 53 1.0 3.0 0.00 0.01 0.00 76 1016.8
20190424135006 49 53 1.0 3.0 0.00 0.01 0.00 75 1016.9
20190424134505 50 23 1.0 3.0 0.00 0.01 0.00 76 1016.8
20190424134006 49 339 1.0 3.0 0.00 0.01 0.00 76 1016.7
20190424133504 49 50 1.0 3.0 0.00 0.01 0.00 76 1016.7
20190424133007 49 47 2.0 4.0 0.00 0.01 0.00 76 1016.7
20190424132505 49 51 1.0 5.0 0.00 0.01 0.00 77 1016.7
20190424132006 49 51 1.0 5.0 0.00 0.01 0.00 77 1016.6
20190424131506 49 51 1.0 4.0 0.00 0.01 0.00 77 1016.6
20190424131006 48 58 0.0 2.0 0.00 0.01 0.00 79 1016.7
20190424130505 48 58 0.0 1.0 0.00 0.01 0.00 78 1016.7
20190424130006 48 58 0.0 2.0 0.00 0.01 0.00 79 1016.7
20190424125505 48 58 1.0 2.0 0.00 0.01 0.00 78 1016.8
20190424125006 48 58 1.0 2.0 0.00 0.01 0.00 80 1016.7
20190424124505 47 58 1.0 4.0 0.00 0.01 0.00 80 1016.5
20190424124006 47 58 1.0 4.0 0.00 0.01 0.00 80 1016.6
20190424123505 47 53 1.0 3.0 0.00 0.01 0.00 81 1016.6
20190424123006 46 56 1.0 3.0 0.00 0.01 0.00 81 1016.7
20190424122505 46 46 1.0 3.0 0.00 0.01 0.00 82 1016.6
20190424122006 46 43 0.0 3.0 0.00 0.01 0.00 83 1016.7
20190424121505 45 37 0.0 2.0 0.00 0.01 0.00 84 1016.8
20190424121006 45 37 1.0 2.0 0.00 0.01 0.00 84 1016.8
20190424120505 45 36 0.0 2.0 0.00 0.01 0.00 85 1016.8
20190424120006 44 36 0.0 3.0 0.00 0.01 0.00 87 1016.8
20190424115505 43 36 0.0 3.0 0.00 0.01 0.00 90 1016.7
20190424115009 42 302 0.0 1.0 0.00 0.01 0.00 92 1016.7
20190424114505 41 302 0.0 0.0 0.00 0.01 0.00 92 1016.9
20190424114006 40 302 0.0 0.0 0.00 0.01 0.00 92 1017.0
20190424113505 40 302 0.0 0.0 0.00 0.01 0.00 92 1017.0
20190424113005 40 302 0.0 0.0 0.00 0.01 0.00 91 1017.0
20190424112505 40 302 0.0 1.0 0.00 0.01 0.00 91 1016.9
20190424112005 40 302 0.0 1.0 0.00 0.01 0.00 92 1016.9
20190424111505 39 297 0.0 1.0 0.00 0.01 0.00 92 1016.9
20190424111006 40 62 0.0 1.0 0.00 0.01 0.00 92 1016.9
20190424110505 39 62 0.0 1.0 0.00 0.01 0.00 91 1016.7
20190424110006 39 62 0.0 0.0 0.00 0.01 0.00 91 1016.7
20190424105505 39 62 0.0 0.0 0.00 0.01 0.00 91 1016.6
20190424105005 40 62 0.0 0.0 0.00 0.01 0.00 91 1016.7
20190424104509 40 62 0.0 0.0 0.00 0.01 0.00 91 1016.7
20190424104006 40 62 0.0 0.0 0.00 0.01 0.00 91 1016.5
20190424103505 40 62 0.0 0.0 0.00 0.01 0.00 91 1016.4
20190424103006 40 62 0.0 0.0 0.00 0.01 0.00 90 1016.5
20190424102505 40 62 0.0 0.0 0.00 0.01 0.00 90 1016.5
20190424102005 40 62 0.0 0.0 0.00 0.01 0.00 90 1016.5
20190424101505 40 62 0.0 0.0 0.00 0.01 0.00 90 1016.5
20190424101006 40 62 0.0 0.0 0.00 0.01 0.00 90 1016.5
20190424100505 40 62 0.0 0.0 0.00 0.01 0.00 90 1016.5
20190424100008 40 62 0.0 0.0 0.00 0.01 0.00 90 1016.7
20190424095505 40 62 0.0 0.0 0.00 0.01 0.00 90 1016.9
20190424095006 40 62 0.0 0.0 0.00 0.01 0.00 90 1016.9
20190424094505 40 62 0.0 0.0 0.00 0.01 0.00 89 1016.8
20190424094006 40 62 0.0 0.0 0.00 0.01 0.00 89 1016.5
20190424093505 40 62 0.0 0.0 0.00 0.01 0.00 89 1016.5
20190424093007 40 62 0.0 0.0 0.00 0.01 0.00 89 1016.4
20190424092505 40 62 0.0 0.0 0.00 0.01 0.00 89 1016.3
20190424092006 41 62 0.0 0.0 0.00 0.01 0.00 89 1016.2
20190424091006 41 62 0.0 0.0 0.00 0.01 0.00 89 1016.3
20190424090505 41 62 0.0 0.0 0.00 0.01 0.00 89 1016.3
20190424090006 41 62 0.0 0.0 0.00 0.01 0.00 88 1016.1
20190424085505 41 62 0.0 0.0 0.00 0.01 0.00 88 1016.1
20190424085005 41 62 0.0 0.0 0.00 0.01 0.00 88 1016.1
20190424084505 41 62 0.0 0.0 0.00 0.01 0.00 88 1016.0
20190424084005 41 62 0.0 0.0 0.00 0.01 0.00 87 1016.1
20190424083507 41 62 0.0 0.0 0.00 0.01 0.00 88 1016.2
20190424083006 41 62 0.0 0.0 0.00 0.01 0.00 87 1015.9
20190424082505 41 62 0.0 0.0 0.00 0.01 0.00 87 1015.9
20190424082006 41 62 0.0 0.0 0.00 0.01 0.00 87 1016.0
20190424081505 42 62 0.0 0.0 0.00 0.01 0.00 86 1015.9
20190424081006 42 62 0.0 0.0 0.00 0.01 0.00 87 1016.1
20190424080505 42 62 0.0 0.0 0.00 0.01 0.00 86 1016.1
20190424080006 42 62 0.0 0.0 0.00 0.01 0.00 86 1016.1
20190424075505 42 62 0.0 0.0 0.00 0.01 0.00 85 1016.2
20190424075005 42 62 0.0 0.0 0.00 0.01 0.00 86 1016.1
20190424074505 43 62 0.0 0.0 0.00 0.01 0.00 85 1016.2
20190424074005 43 62 0.0 0.0 0.00 0.01 0.00 84 1016.2
20190424073505 43 62 0.0 0.0 0.00 0.01 0.00 84 1016.3
20190424073006 43 62 0.0 0.0 0.00 0.01 0.00 84 1016.3
20190424072505 44 62 0.0 0.0 0.00 0.01 0.00 83 1016.3
20190424072010 44 62 0.0 0.0 0.00 0.01 0.00 83 1016.3
20190424071505 44 62 0.0 0.0 0.00 0.01 0.00 83 1016.5
20190424071006 44 62 0.0 0.0 0.00 0.01 0.00 83 1016.4
20190424070505 44 62 0.0 0.0 0.00 0.01 0.00 83 1016.5
20190424070006 44 62 0.0 0.0 0.00 0.01 0.00 83 1016.4
20190424065505 44 62 0.0 0.0 0.00 0.01 0.00 83 1016.4
20190424065005 44 62 0.0 1.0 0.00 0.01 0.00 83 1016.4
20190424064505 44 62 0.0 1.0 0.00 0.01 0.00 83 1016.5
20190424064006 44 62 0.0 0.0 0.00 0.01 0.00 84 1016.5
20190424063505 44 62 0.0 0.0 0.00 0.01 0.00 84 1016.6
20190424063006 44 62 0.0 0.0 0.00 0.01 0.00 84 1016.5
20190424062505 44 62 0.0 0.0 0.00 0.01 0.00 84 1016.6
20190424062005 44 62 0.0 0.0 0.00 0.01 0.00 84 1016.7
20190424061505 45 62 0.0 0.0 0.00 0.01 0.00 84 1016.7
20190424061109 45 62 0.0 0.0 0.00 0.01 0.00 84 1016.7
20190424060505 45 62 0.0 0.0 0.00 0.01 0.00 83 1016.6
20190424060007 45 62 0.0 0.0 0.00 0.01 0.00 83 1016.5
20190424055506 45 62 0.0 0.0 0.00 0.01 0.00 83 1016.6
20190424055008 45 62 0.0 0.0 0.00 0.01 0.00 83 1016.7
20190424054507 45 62 0.0 0.0 0.00 0.01 0.00 82 1016.8
20190424054007 45 62 0.0 0.0 0.00 0.01 0.00 83 1016.8
20190424053507 45 62 0.0 0.0 0.00 0.01 0.00 83 1016.9
20190424053008 46 62 0.0 0.0 0.00 0.01 0.00 83 1016.9
20190424052506 46 62 0.0 0.0 0.00 0.01 0.00 82 1016.9
20190424052008 46 62 0.0 0.0 0.00 0.01 0.00 82 1017.0
20190424051507 46 62 0.0 0.0 0.00 0.01 0.00 82 1016.9
20190424051008 46 62 0.0 0.0 0.00 0.01 0.00 82 1017.1
20190424050506 46 62 0.0 0.0 0.00 0.01 0.00 82 1017.0
20190424050011 46 62 0.0 0.0 0.00 0.01 0.00 81 1016.9
20190424045507 46 62 0.0 0.0 0.00 0.01 0.01 82 1017.1
20190424045007 47 62 0.0 0.0 0.00 0.01 0.01 82 1017.1
20190424044507 47 62 0.0 0.0 0.00 0.01 0.01 82 1017.2
20190424044008 47 62 0.0 0.0 0.00 0.01 0.01 82 1017.2
20190424043507 47 62 0.0 0.0 0.00 0.01 0.01 81 1017.1
20190424043007 47 62 0.0 0.0 0.00 0.01 0.01 81 1017.0
20190424042508 47 62 0.0 0.0 0.00 0.01 0.01 81 1017.2
20190424042017 47 62 0.0 0.0 0.00 0.01 0.01 81 1017.1
20190424041507 47 62 0.0 0.0 0.00 0.01 0.01 80 1017.1
20190424041008 48 62 0.0 0.0 0.00 0.01 0.01 80 1017.0
20190424040507 48 62 0.0 0.0 0.00 0.01 0.01 80 1017.1
20190424040008 48 62 0.0 0.0 0.00 0.01 0.01 80 1017.2
20190424035506 48 62 0.0 0.0 0.00 0.01 0.01 81 1017.2
20190424035007 48 62 0.0 0.0 0.00 0.01 0.01 81 1017.2
20190424034507 48 62 0.0 0.0 0.00 0.01 0.01 81 1017.3
20190424034007 48 62 0.0 0.0 0.00 0.01 0.01 80 1017.3
20190424033507 48 62 0.0 0.0 0.00 0.01 0.01 80 1017.3
20190424033008 48 62 0.0 0.0 0.00 0.01 0.01 80 1017.2
20190424032506 48 62 0.0 0.0 0.00 0.01 0.01 79 1017.5
20190424032009 49 62 0.0 0.0 0.00 0.01 0.01 79 1017.3
20190424031506 49 62 0.0 0.0 0.00 0.01 0.01 79 1017.4
20190424031008 49 62 0.0 0.0 0.00 0.01 0.01 78 1017.4
20190424030507 49 62 0.0 0.0 0.00 0.01 0.01 78 1017.4
20190424030008 49 62 0.0 0.0 0.00 0.01 0.01 78 1017.4
20190424025507 50 62 0.0 0.0 0.00 0.01 0.01 77 1017.4
20190424025008 50 62 0.0 0.0 0.00 0.01 0.01 77 1017.5